Terminal Aerodrome Forecast
Issued by NWS

Home | Current Version | Previous Version | Text Only | Print | Product List | Glossary On
Versions: 1 2 3 4 5 6 7 8 9 10 11 12 13 14 15
000
FTUS43 KSGF 311600 AAB
TAFBBG
TAF AMD
KBBG 311659Z 3117/0112 33015G22KT P6SM SCT025
     FM312200 34010KT P6SM SKC
     FM010100 VRB04KT P6SM SKC=

USA.gov is the U.S. government's official web portal to all federal, state and local government web resources and services.